Workout of the Day

« September 7, 2022 »

4 x 6 minutes with rate changes. 2 minutes rest between intervals.

4 x 6 minutes of work with two minutes rest between intervals. Each 6 minute interval is split into 3 minutes then 2 minutes then 1 minute at different stroke rates or cadence. RowErg: 3 minutes at 22, 2 minutes at 24, 1 minute at 28. SkiErg: 3 minutes at 33, 2 minutes at 36, 1 minute at 42. BikeErg: 3 minutes at 78, 2 minutes at 82, 1 minute at 90.

Pos. Name Age Country Result Pace
1401 Andrey Martynovich 57 AIN 4,497 2:40.1
1402 Michael McCarthy 68 USA 4,494 2:40.2
1402 Harm-Jan Pieters 45 NED 4,494 2:40.2
1404 William Tooher 59 IRL 4,490 2:40.3
1405 Michelle Schoenborn 53 USA 4,489 2:40.3
1405 Mike Farley 37 USA 4,489 2:40.3
1405 Noah Burch 36 USA 4,489 2:40.3
1405 Tania Rhodes 33 ESP 4,489 2:40.3
1409 Heather Rushing 49 USA 4,488 2:40.4
1409 Chris O'Brien 61 AUS 4,488 2:40.4
1409 Tom F - USA 4,488 2:40.4
1412 Jean Marc Ostiguy 63 CAN 4,487 2:40.4
1413 Carol Davies 56 GBR 4,485 2:40.5
1414 Diana - - CHN 4,481 2:40.6
1415 Robert Montgomery 35 USA 4,473 2:40.9
1416 Chris Dillard 51 USA 4,471 2:41.0
1417 Chip Tangen 58 USA 4,469 2:41.1
1417 Keith Paris 60 USA 4,469 2:41.1
1419 Dan H 69 USA 4,466 2:41.2
1420 David Galle 73 USA 4,465 2:41.2
1421 Andrew Englert 43 USA 4,463 2:41.3
1422 Nephtaly Rivera 32 USA 4,461 2:41.3
1423 K. L. Bodeker 52 USA 4,460 2:41.4
1423 Walter Cristini 41 ITA 4,460 2:41.4
1425 Junior Polanco 35 DOM 4,457 2:41.5
1426 Emory Prochoda 30 USA 4,456 2:41.5
1426 John Hitchcock 44 USA 4,456 2:41.5
1428 Klaus Palzer 53 GER 4,453 2:41.6
1429 Nils-Einar STENMYREN 60 NOR 4,450 2:41.7
1429 Kate LaLonde 43 USA 4,450 2:41.7
1431 Gary Erickson 72 USA 4,435 2:42.3
1431 Rachel Horness 30 USA 4,435 2:42.3
1433 Richard Greenhalgh 57 GBR 4,434 2:42.3
1433 Charles Schwartz 63 USA 4,434 2:42.3
1433 Jilly Whitham - GBR 4,434 2:42.3
1436 Brent Fordham 57 CAN 4,430 2:42.5
1436 Raphael Popodi 35 AUT 4,430 2:42.5
1438 hannah malekow 28 USA 4,429 2:42.5
1439 Stephan Lanfermeijer 52 GBR 4,422 2:42.8
1439 Francesca Mascoli 43 ITA 4,422 2:42.8
1441 dan smith 69 USA 4,421 2:42.8
1441 Brian McMeekan 40 GBR 4,421 2:42.8
1443 Atikah Ismail 53 USA 4,419 2:42.9
1444 Kerri Rodriguez 33 USA 4,416 2:43.0
1444 Gary Walters 45 USA 4,416 2:43.0
1446 Lisa Rich 57 USA 4,413 2:43.1
1447 Michael Wyss 51 SUI 4,411 2:43.2
1448 Julie Kitt 51 GBR 4,408 2:43.3
1449 Gina Marozzi 51 AUS 4,399 2:43.6
1450 Clive(TAID) Bourton 76 GBR 4,396 2:43.7